EW4271 Weather Reports


Display with metric or nautical units.
time (UTC)temp
F
wind
direction
speed
MPH
gust
MPH
rain 1hr
in
rain 24hr
in
rain mn
in
humidity
%
barometer
mb
20260508122123 40 218 1.0 3.0 0.00 0.00 0.00 42 1020.1
20260508121638 40 91 0.0 2.0 0.00 0.00 0.00 43 1020.1
20260508121150 40 91 0.0 2.0 0.00 0.00 0.00 41 1020.1
20260508120627 41 91 0.0 0.0 0.00 0.00 0.00 40 1020.0
20260508120141 41 91 0.0 0.0 0.00 0.00 0.00 40 1020.1
20260508115654 41 91 0.0 0.0 0.00 0.00 0.00 39 1020.0
20260508115147 41 91 0.0 0.0 0.00 0.00 0.00 39 1020.1
20260508114639 42 91 0.0 0.0 0.00 0.00 0.00 40 1020.1
20260508114132 42 91 0.0 0.0 0.00 0.00 0.00 40 1020.1
20260508113626 43 91 0.0 0.0 0.00 0.00 0.00 40 1020.1
20260508113140 43 91 0.0 2.0 0.00 0.00 0.00 37 1019.9
20260508112633 43 91 1.0 2.0 0.00 0.00 0.00 38 1020.0
20260508112130 44 91 0.0 3.0 0.00 0.00 0.00 39 1019.9
20260508111624 44 91 1.0 3.0 0.00 0.00 0.00 35 1019.9
20260508111137 44 223 2.0 3.0 0.00 0.00 0.00 38 1019.9
20260508110631 44 223 1.0 3.0 0.00 0.00 0.00 37 1019.7
20260508110204 44 201 0.0 0.0 0.00 0.00 0.00 40 1019.8
20260508105636 44 87 0.0 0.0 0.00 0.00 0.00 40 1019.9
20260508105128 44 87 0.0 0.0 0.00 0.00 0.00 36 1019.8
20260508104643 44 32 0.0 0.0 0.00 0.00 0.00 38 1019.8
20260508104136 43 286 0.0 0.0 0.00 0.00 0.00 38 1019.6
20260508103654 43 194 0.0 0.0 0.00 0.00 0.00 39 1019.5
20260508103126 43 194 0.0 3.0 0.00 0.00 0.00 38 1019.4
20260508102639 43 194 1.0 3.0 0.00 0.00 0.00 36 1019.3
20260508102133 43 272 0.0 3.0 0.00 0.00 0.00 38 1019.3
20260508101626 43 294 1.0 3.0 0.00 0.00 0.00 35 1019.3
20260508101140 43 360 1.0 4.0 0.00 0.00 0.00 35 1019.2
20260508100633 42 232 2.0 4.0 0.00 0.00 0.00 34 1019.2
20260508100127 42 77 0.0 0.0 0.00 0.00 0.00 35 1019.3
20260508095645 42 23 0.0 0.0 0.00 0.00 0.00 34 1019.4
20260508095138 42 23 0.0 3.0 0.00 0.00 0.00 34 1019.4
20260508094631 43 23 0.0 3.0 0.00 0.00 0.00 35 1019.3
20260508094124 43 288 1.0 3.0 0.00 0.00 0.00 34 1019.3
20260508093638 43 296 1.0 3.0 0.00 0.00 0.00 33 1019.3
20260508093132 43 201 0.0 0.0 0.00 0.00 0.00 34 1019.4
20260508092645 44 196 0.0 0.0 0.00 0.00 0.00 32 1019.5
20260508092138 44 196 0.0 0.0 0.00 0.00 0.00 33 1019.5
20260508091632 44 196 0.0 0.0 0.00 0.00 0.00 33 1019.6
20260508091149 45 196 0.0 0.0 0.00 0.00 0.00 33 1019.6
20260508090643 45 196 0.0 0.0 0.00 0.00 0.00 31 1019.6
20260508090135 46 196 0.0 0.0 0.00 0.00 0.00 30 1019.7
20260508085648 46 196 0.0 0.0 0.00 0.00 0.00 29 1019.7
20260508085141 47 196 0.0 0.0 0.00 0.00 0.00 30 1019.7
20260508084656 47 196 0.0 0.0 0.00 0.00 0.00 30 1019.7
20260508084128 48 196 0.0 0.0 0.00 0.00 0.00 28 1019.7
20260508083642 48 196 0.0 0.0 0.00 0.00 0.00 30 1019.7
20260508083136 49 196 0.0 1.0 0.00 0.00 0.00 27 1019.7
20260508082649 50 196 0.0 1.0 0.00 0.00 0.00 26 1019.7
20260508082126 51 196 0.0 0.0 0.00 0.00 0.00 26 1019.6
20260508081640 51 196 0.0 1.0 0.00 0.00 0.00 25 1019.6
20260508081134 52 196 1.0 2.0 0.00 0.00 0.00 26 1019.7
20260508080627 53 196 0.0 2.0 0.00 0.00 0.00 23 1019.7
20260508080202 53 196 0.0 2.0 0.00 0.00 0.00 21 1019.7
20260508075630 54 196 0.0 1.0 0.00 0.00 0.00 21 1019.7
20260508075123 54 196 0.0 3.0 0.00 0.00 0.00 20 1019.7
20260508074637 55 196 1.0 3.0 0.00 0.00 0.00 19 1019.7
20260508074135 55 250 2.0 5.0 0.00 0.00 0.00 19 1019.7
20260508073628 56 284 3.0 7.0 0.00 0.00 0.00 19 1019.7
20260508073141 57 238 3.0 7.0 0.00 0.00 0.00 21 1019.8
20260508072635 57 161 3.0 5.0 0.00 0.00 0.00 23 1019.7
20260508072128 58 98 1.0 6.0 0.00 0.00 0.00 24 1019.7
20260508071640 58 55 3.0 6.0 0.00 0.00 0.00 23 1019.7
20260508071134 58 40 1.0 9.0 0.00 0.00 0.00 23 1019.6
20260508070628 58 27 3.0 9.0 0.00 0.00 0.00 23 1019.7
20260508070124 57 33 4.0 9.0 0.00 0.00 0.00 23 1019.7
20260508065638 57 36 3.0 8.0 0.00 0.00 0.00 23 1019.6
20260508065133 57 5 3.0 4.0 0.00 0.00 0.00 22 1019.6
20260508064625 57 34 1.0 4.0 0.00 0.00 0.00 21 1019.6
20260508064139 57 37 2.0 4.0 0.00 0.00 0.00 21 1019.5
20260508063632 57 304 1.0 4.0 0.00 0.00 0.00 20 1019.5
20260508063125 57 11 2.0 5.0 0.00 0.00 0.00 19 1019.6
20260508062638 57 355 3.0 5.0 0.00 0.00 0.00 19 1019.5
20260508062151 57 42 2.0 5.0 0.00 0.00 0.00 19 1019.5
20260508061627 57 13 2.0 4.0 0.00 0.00 0.00 19 1019.5
20260508061141 57 5 2.0 6.0 0.00 0.00 0.00 18 1019.5
20260508060634 58 28 4.0 6.0 0.00 0.00 0.00 17 1019.5
20260508060128 57 326 3.0 12.0 0.00 0.00 0.00 18 1019.5
20260508055640 57 17 2.0 12.0 0.00 0.00 0.00 17 1019.5
20260508055132 57 103 2.0 9.0 0.00 0.00 0.00 18 1019.5
20260508054625 57 323 2.0 9.0 0.00 0.00 0.00 18 1019.5
20260508054123 57 13 1.0 5.0 0.00 0.00 0.00 17 1019.6
20260508053636 57 14 1.0 6.0 0.00 0.00 0.00 17 1019.7
20260508053129 57 323 3.0 9.0 0.00 0.00 0.00 16 1019.6
20260508052643 57 41 2.0 9.0 0.00 0.00 0.00 16 1019.6
20260508052135 57 31 3.0 6.0 0.00 0.00 0.00 16 1019.7
20260508051628 57 313 3.0 6.0 0.00 0.00 0.00 17 1019.7
20260508051202 57 38 2.0 9.0 0.00 0.00 0.00 17 1019.6
20260508050635 57 346 3.0 9.0 0.00 0.00 0.00 16 1019.7
20260508050148 57 5 4.0 10.0 0.00 0.00 0.00 16 1019.7
20260508045624 57 35 3.0 10.0 0.00 0.00 0.00 16 1019.6
20260508045158 58 32 3.0 10.0 0.00 0.00 0.00 16 1019.6
20260508044630 58 355 4.0 10.0 0.00 0.00 0.00 16 1019.7
20260508044140 58 19 3.0 7.0 0.00 0.00 0.00 16 1019.7
20260508043629 58 342 3.0 7.0 0.00 0.00 0.00 16 1019.7
20260508043142 58 30 2.0 5.0 0.00 0.00 0.00 15 1019.7
20260508042636 58 5 2.0 8.0 0.00 0.00 0.00 15 1019.8
20260508042149 58 44 2.0 6.0 0.00 0.00 0.00 15 1019.7
20260508041702 58 33 4.0 6.0 0.00 0.00 0.00 14 1019.7
20260508041134 58 296 1.0 5.0 0.00 0.00 0.00 15 1019.7
20260508040649 58 41 3.0 5.0 0.00 0.00 0.00 15 1019.7
20260508040140 58 323 2.0 8.0 0.00 0.00 0.00 15 1019.7
20260508035639 59 13 2.0 8.0 0.00 0.00 0.00 15 1019.7
20260508035153 59 351 4.0 7.0 0.00 0.00 0.00 15 1019.7
20260508034624 59 347 2.0 6.0 0.00 0.00 0.00 15 1019.7
20260508034137 59 300 1.0 4.0 0.00 0.00 0.00 15 1019.6
20260508033631 59 300 2.0 5.0 0.00 0.00 0.00 15 1019.6
20260508033144 59 5 2.0 5.0 0.00 0.00 0.00 15 1019.5
20260508032637 59 257 1.0 4.0 0.00 0.00 0.00 15 1019.4
20260508032129 59 45 2.0 4.0 0.00 0.00 0.00 14 1019.4
20260508031644 59 5 2.0 6.0 0.00 0.00 0.00 15 1019.2
20260508031136 59 5 3.0 6.0 0.00 0.00 0.00 15 1019.2
20260508030634 60 9 2.0 4.0 0.00 0.00 0.00 15 1019.2
20260508030126 60 62 2.0 13.0 0.00 0.00 0.00 15 1019.0
20260508025639 60 5 3.0 13.0 0.00 0.00 0.00 15 1018.9
20260508025133 59 13 2.0 8.0 0.00 0.00 0.00 15 1018.9
20260508024625 59 15 2.0 5.0 0.00 0.00 0.00 16 1018.7
20260508024159 59 50 2.0 5.0 0.00 0.00 0.00 16 1018.7
20260508023631 59 91 1.0 2.0 0.00 0.00 0.00 17 1018.7
20260508023125 59 360 1.0 3.0 0.00 0.00 0.00 17 1018.7
20260508022638 59 302 2.0 3.0 0.00 0.00 0.00 19 1018.7
20260508022136 59 246 0.0 3.0 0.00 0.00 0.00 18 1018.7
20260508021629 58 68 1.0 3.0 0.00 0.00 0.00 20 1018.7
20260508021123 58 336 0.0 3.0 0.00 0.00 0.00 19 1018.6
20260508020636 57 336 2.0 3.0 0.00 0.00 0.00 20 1018.6
20260508020130 58 347 0.0 1.0 0.00 0.00 0.00 23 1018.5
20260508015624 58 347 0.0 2.0 0.00 0.00 0.00 21 1018.4
20260508015140 58 5 0.0 2.0 0.00 0.00 0.00 22 1018.4
20260508014632 59 271 0.0 0.0 0.00 0.00 0.00 21 1018.3
20260508014130 60 271 0.0 1.0 0.00 0.00 0.00 21 1018.2
20260508013625 61 271 0.0 2.0 0.00 0.00 0.00 21 1018.2
20260508013138 62 271 1.0 3.0 0.00 0.00 0.00 18 1018.1
20260508012631 63 271 1.0 3.0 0.00 0.00 0.00 17 1018.0
20260508012125 64 311 1.0 2.0 0.00 0.00 0.00 17 1017.9
20260508011639 64 311 0.0 1.0 0.00 0.00 0.00 15 1017.8
20260508011134 65 311 0.0 1.0 0.00 0.00 0.00 15 1017.8
20260508010627 65 311 0.0 3.0 0.00 0.00 0.00 14 1017.8
20260508010125 65 311 2.0 3.0 0.00 0.00 0.00 14 1017.8
20260508005638 66 360 1.0 2.0 0.00 0.00 0.00 13 1017.8
20260508005132 66 360 1.0 2.0 0.00 0.00 0.00 12 1017.8
20260508004626 66 360 1.0 2.0 0.00 0.00 0.00 13 1017.7
20260508004200 66 112 0.0 5.0 0.00 0.00 0.00 13 1017.7
20260508003653 67 137 1.0 5.0 0.00 0.00 0.00 12 1017.8
20260508003146 67 176 0.0 4.0 0.00 0.00 0.00 13 1017.8
20260508002638 67 166 0.0 8.0 0.00 0.00 0.00 12 1018.0
20260508002133 67 132 2.0 6.0 0.00 0.00 0.00 12 1017.9
20260508001645 68 168 2.0 6.0 0.00 0.00 0.00 12 1017.9
20260508001141 68 148 2.0 6.0 0.00 0.00 0.00 12 1017.9
20260508000652 69 177 1.0 7.0 0.00 0.00 0.00 12 1017.9
20260508000123 69 104 3.0 7.0 0.00 0.00 0.00 12 1017.9
20260507235656 69 113 1.0 4.0 0.00 0.00 0.00 13 1018.0
20260507235128 69 327 1.0 5.0 0.00 0.00 0.00 13 1018.1
20260507234642 69 130 3.0 5.0 0.00 0.00 0.00 12 1018.0
20260507234157 69 161 1.0 4.0 0.00 0.00 0.00 13 1018.1
20260507233630 68 227 1.0 5.0 0.00 0.00 0.00 14 1018.1
20260507233124 68 153 2.0 5.0 0.00 0.00 0.00 14 1018.2
20260507232636 68 94 0.0 5.0 0.00 0.00 0.00 15 1018.1
20260507232148 68 91 1.0 5.0 0.00 0.00 0.00 15 1018.2
20260507231644 68 97 1.0 8.0 0.00 0.00 0.00 15 1018.2
20260507231137 67 128 4.0 8.0 0.00 0.00 0.00 16 1018.3
20260507230630 67 221 2.0 6.0 0.00 0.00 0.00 16 1018.3
20260507230123 67 287 1.0 7.0 0.00 0.00 0.00 16 1018.5
20260507225635 68 126 3.0 7.0 0.00 0.00 0.00 17 1018.4
20260507225129 68 36 1.0 6.0 0.00 0.00 0.00 17 1018.5
20260507224623 68 90 2.0 4.0 0.00 0.00 0.00 17 1018.5
20260507224134 68 267 1.0 6.0 0.00 0.00 0.00 18 1018.5
20260507223627 67 238 3.0 6.0 0.00 0.00 0.00 18 1018.5
20260507223125 67 84 2.0 5.0 0.00 0.00 0.00 18 1018.6
20260507222639 67 290 2.0 5.0 0.00 0.00 0.00 18 1018.6
20260507222131 67 307 3.0 5.0 0.00 0.00 0.00 19 1018.7
20260507221625 67 146 2.0 9.0 0.00 0.00 0.00 19 1018.7
20260507221138 68 269 4.0 9.0 0.00 0.00 0.00 19 1018.8
20260507220631 68 136 3.0 8.0 0.00 0.00 0.00 20 1018.8
20260507220124 68 178 3.0 7.0 0.00 0.00 0.00 19 1018.9
20260507215637 68 310 1.0 3.0 0.00 0.00 0.00 20 1018.9
20260507215134 68 252 2.0 5.0 0.00 0.00 0.00 20 1019.1
20260507214628 68 169 3.0 5.0 0.00 0.00 0.00 20 1019.1
20260507214200 68 136 1.0 6.0 0.00 0.00 0.00 21 1019.2
20260507213633 69 311 3.0 6.0 0.00 0.00 0.00 21 1019.3
20260507213126 69 165 3.0 5.0 0.00 0.00 0.00 21 1019.4
20260507212700 69 179 2.0 5.0 0.00 0.00 0.00 22 1019.5
20260507212131 68 309 3.0 5.0 0.00 0.00 0.00 22 1019.6
20260507211624 68 150 2.0 6.0 0.00 0.00 0.00 23 1019.7
20260507211138 68 351 1.0 9.0 0.00 0.00 0.00 22 1019.8
20260507210651 68 140 4.0 9.0 0.00 0.00 0.00 21 1019.9
20260507210147 67 312 3.0 8.0 0.00 0.00 0.00 21 1020.0
20260507205640 66 154 2.0 10.0 0.00 0.00 0.00 22 1020.0
20260507205133 66 193 4.0 10.0 0.00 0.00 0.00 21 1020.1
20260507204625 66 214 2.0 5.0 0.00 0.00 0.00 23 1020.1
20260507204139 66 76 3.0 5.0 0.00 0.00 0.00 22 1020.2
20260507203631 66 29 1.0 6.0 0.00 0.00 0.00 21 1020.3
20260507203144 66 171 2.0 9.0 0.00 0.00 0.00 21 1020.5
20260507202637 67 144 3.0 11.0 0.00 0.00 0.00 21 1020.5
20260507202151 67 229 4.0 11.0 0.00 0.00 0.00 21 1020.6
20260507201627 67 132 1.0 5.0 0.00 0.00 0.00 22 1020.6
20260507201140 67 343 2.0 6.0 0.00 0.00 0.00 22 1020.7
20260507200653 66 250 2.0 6.0 0.00 0.00 0.00 22 1020.8
20260507200146 65 313 2.0 5.0 0.00 0.00 0.00 23 1020.8
20260507195638 64 86 3.0 6.0 0.00 0.00 0.00 23 1020.8
20260507195132 64 162 4.0 6.0 0.00 0.00 0.00 24 1020.9
20260507194625 63 199 2.0 6.0 0.00 0.00 0.00 23 1021.0
20260507194138 63 31 3.0 6.0 0.00 0.00 0.00 23 1021.0
20260507193630 63 198 1.0 7.0 0.00 0.00 0.00 24 1021.1
20260507193127 63 178 3.0 12.0 0.00 0.00 0.00 24 1021.3
20260507192641 63 133 3.0 7.0 0.00 0.00 0.00 23 1021.3
20260507192135 63 121 2.0 5.0 0.00 0.00 0.00 25 1021.3
20260507191627 63 40 3.0 5.0 0.00 0.00 0.00 25 1021.4
20260507191141 63 78 3.0 7.0 0.00 0.00 0.00 25 1021.4
20260507190633 62 164 3.0 9.0 0.00 0.00 0.00 25 1021.5
20260507190127 62 145 4.0 9.0 0.00 0.00 0.00 25 1021.5
20260507185640 61 87 1.0 4.0 0.00 0.00 0.00 27 1021.5
20260507185133 60 201 3.0 4.0 0.00 0.00 0.00 27 1021.7
20260507184631 59 101 3.0 6.0 0.00 0.00 0.00 27 1021.8
20260507184123 59 29 3.0 8.0 0.00 0.00 0.00 28 1021.9
20260507183636 59 58 1.0 4.0 0.00 0.00 0.00 28 1022.0
20260507183150 59 257 2.0 7.0 0.00 0.00 0.00 26 1022.0
20260507182623 59 62 3.0 7.0 0.00 0.00 0.00 27 1022.0
20260507182135 59 219 4.0 8.0 0.00 0.00 0.00 28 1022.1
20260507181650 59 150 3.0 8.0 0.00 0.00 0.00 28 1022.2
20260507181142 59 244 3.0 8.0 0.00 0.00 0.00 27 1022.3
20260507180635 59 62 3.0 7.0 0.00 0.00 0.00 28 1022.4
20260507180152 58 111 1.0 8.0 0.00 0.00 0.00 29 1022.4
20260507175626 57 173 2.0 9.0 0.00 0.00 0.00 29 1022.5
20260507175139 57 134 2.0 9.0 0.00 0.00 0.00 29 1022.6
20260507174633 57 257 3.0 6.0 0.00 0.00 0.00 28 1022.7
20260507174126 57 98 2.0 9.0 0.00 0.00 0.00 29 1022.7
20260507173639 57 126 3.0 9.0 0.00 0.00 0.00 29 1022.8
20260507173134 57 56 3.0 8.0 0.00 0.00 0.00 30 1022.8
20260507172626 57 127 2.0 8.0 0.00 0.00 0.00 30 1022.9
20260507172159 57 121 3.0 7.0 0.00 0.00 0.00 30 1023.0
20260507171636 56 167 3.0 6.0 0.00 0.00 0.00 31 1023.1
20260507171129 56 127 2.0 8.0 0.00 0.00 0.00 31 1023.1
20260507170623 55 153 2.0 9.0 0.00 0.00 0.00 32 1023.2
20260507170135 56 144 6.0 9.0 0.00 0.00 0.00 31 1023.2
20260507165629 55 44 3.0 9.0 0.00 0.00 0.00 32 1023.2
20260507165123 54 142 2.0 8.0 0.00 0.00 0.00 34 1023.2
20260507164636 53 184 3.0 6.0 0.00 0.00 0.00 34 1023.4
20260507164130 53 119 3.0 7.0 0.00 0.00 0.00 34 1023.4
20260507163626 53 153 4.0 8.0 0.00 0.00 0.00 34 1023.4
20260507163201 52 70 2.0 10.0 0.00 0.00 0.00 35 1023.4
20260507162633 52 121 2.0 7.0 0.00 0.00 0.00 36 1023.5
20260507162126 51 140 3.0 9.0 0.00 0.00 0.00 37 1023.6
20260507161641 52 26 3.0 9.0 0.00 0.00 0.00 36 1023.7
20260507161134 52 151 3.0 9.0 0.00 0.00 0.00 36 1023.8
20260507160626 51 150 3.0 9.0 0.00 0.00 0.00 38 1023.8
20260507160140 51 103 2.0 8.0 0.00 0.00 0.00 38 1023.8
20260507155634 51 101 3.0 6.0 0.00 0.00 0.00 37 1023.8
20260507155130 50 147 3.0 10.0 0.00 0.00 0.00 38 1023.8
20260507154623 50 140 3.0 9.0 0.00 0.00 0.00 38 1023.9
20260507154137 50 44 3.0 9.0 0.00 0.00 0.00 40 1023.9
20260507153630 49 166 3.0 11.0 0.00 0.00 0.00 40 1023.9
20260507153144 49 134 4.0 11.0 0.00 0.00 0.00 39 1023.9
20260507152637 50 48 2.0 11.0 0.00 0.00 0.00 38 1024.0
20260507152149 50 209 4.0 9.0 0.00 0.00 0.00 38 1023.9
20260507151623 50 85 3.0 6.0 0.00 0.00 0.00 38 1023.9
20260507151157 49 144 2.0 6.0 0.00 0.00 0.00 40 1023.9
20260507150628 49 348 2.0 9.0 0.00 0.00 0.00 40 1024.0
20260507150125 48 140 4.0 9.0 0.00 0.00 0.00 41 1024.0
20260507145700 49 121 5.0 9.0 0.00 0.00 0.00 42 1024.0
20260507145132 48 81 2.0 9.0 0.00 0.00 0.00 41 1024.1
20260507144625 48 150 1.0 7.0 0.00 0.00 0.00 45 1024.1
20260507144138 47 148 3.0 7.0 0.00 0.00 0.00 45 1024.1
20260507143632 47 51 2.0 4.0 0.00 0.00 0.00 45 1024.1
20260507143124 47 92 2.0 4.0 0.00 0.00 0.00 49 1024.1
20260507142658 46 99 2.0 7.0 0.00 0.00 0.00 50 1024.0
20260507142131 45 148 2.0 7.0 0.00 0.00 0.00 53 1024.1
20260507141627 44 146 1.0 5.0 0.00 0.00 0.00 54 1024.3
20260507141140 44 155 2.0 5.0 0.00 0.00 0.00 55 1024.3
20260507140634 42 138 3.0 5.0 0.00 0.00 0.00 57 1024.3
20260507140148 41 145 2.0 5.0 0.00 0.00 0.00 58 1024.3
20260507135641 40 160 1.0 3.0 0.00 0.00 0.00 63 1024.3
20260507135136 39 138 0.0 3.0 0.00 0.00 0.00 65 1024.4
20260507134629 38 138 1.0 3.0 0.00 0.00 0.00 66 1024.4
20260507134123 37 125 0.0 1.0 0.00 0.00 0.00 68 1024.4
20260507133635 36 160 0.0 1.0 0.00 0.00 0.00 69 1024.4
20260507133133 36 192 0.0 0.0 0.00 0.00 0.00 68 1024.4
20260507132647 36 194 0.0 0.0 0.00 0.00 0.00 70 1024.5
20260507132140 35 194 0.0 0.0 0.00 0.00 0.00 70 1024.4
20260507131633 34 194 0.0 0.0 0.00 0.00 0.00 72 1024.4
20260507131126 33 194 0.0 0.0 0.00 0.00 0.00 73 1024.4
20260507130641 32 196 0.0 0.0 0.00 0.00 0.00 74 1024.3
20260507130133 31 197 0.0 0.0 0.00 0.00 0.00 76 1024.2
20260507125627 31 254 0.0 0.0 0.00 0.00 0.00 76 1024.2
20260507125124 31 254 0.0 0.0 0.00 0.00 0.00 76 1024.1
20260507124639 30 254 0.0 0.0 0.00 0.00 0.00 76 1024.1
20260507124132 30 254 0.0 0.0 0.00 0.00 0.00 77 1024.1
20260507123625 30 254 0.0 0.0 0.00 0.00 0.00 77 1024.1
20260507123138 30 254 0.0 0.0 0.00 0.00 0.00 77 1024.1
20260507122653 29 254 0.0 0.0 0.00 0.00 0.00 77 1024.1